This is the latest recevied weather packets stored in our database for station/object N5KJT. If no packets are shown the sender has not sent any weather packets the latest 10 day(s).
| Time | Temp. | Humidity | Pressure | Rain* | Wind** | Luminosity | Snow |
|---|---|---|---|---|---|---|---|
| 1787779515 | 32.78° C | 25% | 1025 hPa | 0 mm | - | 686 W/m² | - |
| 1787779215 | 32.78° C | 24% | 1025.1 hPa | 0 mm | - | 278 W/m² | - |
| 1787778917 | 32.78° C | 25% | 1025.2 hPa | 0 mm | - | 232 W/m² | - |
| 1787778617 | 32.78° C | 24% | 1025.4 hPa | 0 mm | - | 212 W/m² | - |
| 1787778317 | 33.33° C | 23% | 1025.5 hPa | 0 mm | - | 230 W/m² | - |
| 1787778017 | 33.33° C | 24% | 1025.6 hPa | 0 mm | - | 276 W/m² | - |
| 1787777717 | 33.89° C | 24% | 1025.7 hPa | 0 mm | - | 403 W/m² | - |
| 1787777417 | 33.89° C | 24% | 1025.8 hPa | 0 mm | - | 1248 W/m² | - |
| 1787777116 | 33.89° C | 24% | 1026 hPa | 0 mm | - | 1200 W/m² | - |
| 1787776817 | 33.33° C | 24% | 1025.9 hPa | 0 mm | - | 1193 W/m² | - |
| 1787776517 | 33.33° C | 25% | 1025.9 hPa | 0 mm | - | 1210 W/m² | - |
| 1787776217 | 32.78° C | 27% | 1026 hPa | 0 mm | - | 1162 W/m² | - |
| 1787775917 | 32.78° C | 27% | 1026.2 hPa | 0 mm | - | 1180 W/m² | - |
| 1787775617 | 32.78° C | 27% | 1026.3 hPa | 0 mm | - | 1222 W/m² | - |
| 1787775317 | 32.22° C | 29% | 1026.4 hPa | 0 mm | - | 1225 W/m² | - |
| 1787775017 | 32.22° C | 28% | 1026.5 hPa | 0 mm | - | 1218 W/m² | - |
| 1787774717 | 32.22° C | 29% | 1026.6 hPa | 0 mm | - | 164 W/m² | - |
| 1787774417 | 32.78° C | 28% | 1026.7 hPa | 0 mm | - | 132 W/m² | - |
| 1787774117 | 32.78° C | 28% | 1026.8 hPa | 0 mm | - | 942 W/m² | - |
| 1787773817 | 32.22° C | 30% | 1026.9 hPa | 0 mm | - | 1206 W/m² | - |
| 1787773517 | 32.22° C | 30% | 1027.1 hPa | 0 mm | - | 1202 W/m² | - |
| 1787773217 | 32.22° C | 30% | 1027.2 hPa | 0 mm | - | 1200 W/m² | - |
| 1787772917 | 32.22° C | 31% | 1027.3 hPa | 0 mm | - | 1206 W/m² | - |
| 1787772617 | 32.22° C | 31% | 1027.5 hPa | 0 mm | - | 1209 W/m² | - |
| 1787772317 | 31.67° C | 32% | 1027.6 hPa | 0 mm | - | 1206 W/m² | - |
* Rain latest hour (hover to see other rain measurements)
** Current wind speed in m/s (hover to see current wind gust speed)